Regional Weather Roundup
Issued by NWS

Home | Current Version | Previous Version | Text Only | Print | Product List | Glossary Off
Versions: 1 2 3 4 5 6 7 8 9 10 11 12 13 14 15 16 17 18 19 20 21 22 23 24 25 26 27 28 29 30 31 32 33 34 35 36 37 38 39 40 41 42 43 44 45 46 47 48 49 50

000
ASUS43 KOAX 081802
RWRNE

WEATHER ROUNDUP FOR NEBRASKA
NATIONAL WEATHER SERVICE OMAHA NE
1200 PM CST MON FEB 08 2016

NOTES: SATELLITE DATA IS BEING USED TO AUGMENT CLOUD COVER ABOVE
       12000 FEET.
       "FAIR" INDICATES FEW OR NO CLOUDS BELOW 12,000 FEET WITH NO
       SIGNIFICANT WEATHER AND/OR OBSTRUCTIONS TO VISIBILITY.

  * THESE STATIONS DO NOT REPORT WEATHER SUCH AS RAIN...SNOW OR FOG.

NEZ001>004-019>022-054>056-081900-
NEBRASKA PANHANDLE

CITY           SKY/WX    TMP DP  RH WIND       PRES   REMARKS
SCOTTSBLUFF    CLOUDY    36  19  50 NW21      30.38F WCI  25
6HR MIN TEMP:  21; 6HR MAX TEMP:  36;

ALLIANCE       MOSUNNY   31  15  52 NW21      30.34F WCI  18
6HR MIN TEMP:  17; 6HR MAX TEMP:  31;

CHADRON        CLOUDY    36  13  38 NW21G33   30.39F WCI  25
6HR MIN TEMP:  26; 6HR MAX TEMP:  36;

SIDNEY         CLOUDY    33  19  56 NW15      30.37S WCI  23
6HR MIN TEMP:  19; 6HR MAX TEMP:  33;

$$

NEZ057>060-069>072-079>082-081900-
SOUTHWEST NEBRASKA

CITY           SKY/WX    TMP DP  RH WIND       PRES   REMARKS
NORTH PLATTE   CLOUDY    33  15  47 NW28G35   30.32F WCI  20
6HR MIN TEMP:  20; 6HR MAX TEMP:  33;

IMPERIAL       MOSUNNY   33  14  45 NW18      30.36F WCI  22
6HR MIN TEMP:  23; 6HR MAX TEMP:  33;

MCCOOK         SUNNY     33  15  47 NW29G41   30.34F WCI  19
6HR MIN TEMP:  24; 6HR MAX TEMP:  34;

$$

NEZ005>010-023>029-035>040-094-081900-
NORTH CENTRAL NEBRASKA

CITY           SKY/WX    TMP DP  RH WIND       PRES   REMARKS
VALENTINE      PTSUNNY   30  16  56 NW23G32   30.30  WCI  17
6HR MIN TEMP:  23; 6HR MAX TEMP:  30;

BROKEN BOW     SUNNY     33  15  47 N32G45    30.25F WCI  19
6HR MIN TEMP:  26; 6HR MAX TEMP:  33;

ORD            SUNNY     32  17  54 NW36G46   30.21F WCI  16
6HR MIN TEMP:  25; 6HR MAX TEMP:  32;

$$

NEZ041-046>049-061>064-073>077-083>087-081900-
SOUTH CENTRAL NEBRASKA

CITY           SKY/WX    TMP DP  RH WIND       PRES   REMARKS
GRAND ISLAND   SUNNY     32  17  54 NW29G38   30.21F WCI  18
6HR MIN TEMP:  26; 6HR MAX TEMP:  32;

HASTINGS       SUNNY     33  18  53 NW28G45   30.21F WCI  20
6HR MIN TEMP:  26; 6HR MAX TEMP:  33;

$$

NEZ011>018-030>034-042>045-081900-
NORTHEAST NEBRASKA

CITY           SKY/WX    TMP DP  RH WIND       PRES   REMARKS
NORFOLK        MOSUNNY   29  17  61 NW33G44   30.14S WCI  13
6HR MIN TEMP:  27; 6HR MAX TEMP:  29;

COLUMBUS *     MOSUNNY   30  12  47 NW24G36   30.16S WCI  16
TEKAMAH        CLOUDY    29  17  61 NW29G43   30.13R WCI  14
6HR MIN TEMP:  27; 6HR MAX TEMP:  30; 6HR PCP: TRACE;

$$

NEZ050>053-065>068-078-088>093-081900-
SOUTHEAST NEBRASKA

CITY           SKY/WX    TMP DP  RH WIND       PRES   REMARKS
LINCOLN        CLOUDY    31  19  61 NW30G39   30.16S WCI  16
6HR MIN TEMP:  29; 6HR MAX TEMP:  31;

OMAHA EPPLEY   FLURRIES  27  17  66 NW30G40   30.10S WCI  11
6HR MIN TEMP:  27; 6HR MAX TEMP:  28; 6HR PCP: TRACE;

FALLS CITY     CLOUDY    31  19  61 N17G33    30.10S WCI  19
6HR MIN TEMP:  29; 6HR MAX TEMP:  31; 6HR PCP: TRACE;

$$

NEZ044-045-051>053-067-081900-
OMAHA AREA

CITY           SKY/WX    TMP DP  RH WIND       PRES   REMARKS
OMAHA EPPLEY   FLURRIES  27  17  66 NW30G40   30.10S WCI  11
6HR MIN TEMP:  27; 6HR MAX TEMP:  28; 6HR PCP: TRACE;

OFFUTT AFB     FLURRIES  28  17  65 NW25G36   30.11R WCI  13
$$



USA.gov is the U.S. government's official web portal to all federal, state and local government web resources and services.